Manila, Philippines

11:24 AM +08 on August 22, 2017 (GMT +0800)
Ninoy Aquino International

Weather History for RPLL - January, 2012

Change the Weather History Date:

Sunday, January 1, 2012

  Actual Average Record
Temperature  
Mean Temperature 79 °F -  
Max Temperature 86 °F 85 °F 89 °F (2017)
Min Temperature 72 °F 72 °F 69 °F (1998)
Cooling Degree Days 14    
Growing Degree Days 29 (Base 50)    
Moisture  
Dew Point 73 °F    
Average Humidity 79    
Maximum Humidity 100    
Minimum Humidity 58    
Precipitation  
Precipitation 0.00 in 0.01 in - ()
Sea Level Pressure  
Sea Level Pressure 29.92 in    
Wind  
Wind Speed 4 mph ()    
Max Wind Speed 12 mph    
Max Gust Speed -    
Visibility 3.2 miles    
Events      
Averages and records for this station are not official NWS values.
T = Trace of Precipitation, MM = Missing Value Source: Averaged Metar Reports

Daily Weather History Graph

Daily Weather History Graph

Search for Another Location

Airport or City:

Trip Planner

Search our weather history database for the weather conditions in past years. The results will help you decide how hot, cold, wet, or windy it might be!

Date:

Astronomy

Jan. 01, 2012 Rise Set
Actual Time 6:20 AM +08 5:37 PM +08
Civil Twilight 5:57 AM +08 6:00 PM +08
Nautical Twilight 5:30 AM +08 6:27 PM +08
Astronomical Twilight 5:04 AM +08 6:54 PM +08
Moon 11:32 AM +08 (1/1) No Moon Set
Length of Visible Light 12h 03m
Length of Day
11h 17m
Waxing Crescent, 49% of the Moon is Illuminated
Jan 1
Waxing Crescent
Jan 1
First Quarter
Jan 9
Full
Jan 16
Last Quarter
Jan 23
New

Hourly Weather History & Observations

Time (+08) Temp. Heat Index Dew Point Humidity Pressure Visibility Wind Dir Wind Speed Gust Speed Precip Events Conditions
12:00 AM 78.8 °F - 73.4 °F 83% 29.98 in 1.1 mi Variable 3.5 mph - N/A   Smoke
1:00 AM 77.0 °F - 73.4 °F 89% 29.95 in 2.5 mi ESE 3.5 mph - N/A   Smoke
2:00 AM 75 °F - 73 °F 92% 29.94 in 2 mi NNE 4.5 mph - -   Smoke
2:00 AM 75.2 °F - 73.4 °F 94% 29.95 in 1.7 mi NNE 3.5 mph - N/A   Smoke
3:00 AM 75.2 °F - 73.4 °F 94% 29.92 in - Calm Calm - N/A   Smoke
4:00 AM 73.4 °F - 71.6 °F 94% 29.92 in 0.7 mi Calm Calm - N/A   Smoke
5:00 AM 74 °F - 72 °F 93% 29.93 in 1 mi Calm Calm - -   Smoke
5:00 AM 73.4 °F - 71.6 °F 94% 29.92 in 0.6 mi Calm Calm - N/A   Smoke
6:00 AM 73.4 °F - 73.4 °F 100% 29.92 in 0.6 mi SSE 2.3 mph - N/A   Smoke
7:00 AM 73.4 °F - 71.6 °F 94% 29.95 in 0.2 mi Calm Calm - N/A   Smoke
8:00 AM 76 °F - 74 °F 91% 29.98 in 0 mi Calm Calm - -   Haze
8:00 AM 77.0 °F - 73.4 °F 89% 29.98 in 0.2 mi Calm Calm - N/A   Partly Cloudy
9:00 AM 80.6 °F 85.4 °F 73.4 °F 79% 29.98 in 1.2 mi Variable 2.3 mph - N/A   Partly Cloudy
10:00 AM 82.4 °F 88.2 °F 73.4 °F 74% 29.98 in 1.2 mi West 5.8 mph - N/A   Scattered Clouds
11:00 AM 82 °F - 73 °F 67% 29.97 in 0 mi West 8.9 mph - -   Haze
11:00 AM 82.4 °F 88.2 °F 73.4 °F 74% 29.95 in 3.1 mi West 8.1 mph - N/A   Scattered Clouds
12:00 PM 84.2 °F 92.3 °F 75.2 °F 74% 29.92 in 3.1 mi WNW 8.1 mph - N/A   Scattered Clouds
1:00 PM 84.2 °F 90.9 °F 73.4 °F 70% 29.89 in 3.1 mi WNW 9.2 mph - N/A   Scattered Clouds
2:00 PM 85 °F - 72 °F 58% 29.86 in 0 mi WNW 6.7 mph - -   Haze
2:00 PM 86.0 °F 91.8 °F 71.6 °F 62% 29.86 in 3.1 mi WNW 8.1 mph - N/A   Scattered Clouds
3:00 PM 86.0 °F 91.8 °F 71.6 °F 62% 29.86 in 6.2 mi WNW 6.9 mph - N/A   Mostly Cloudy
4:00 PM 84.2 °F 90.9 °F 73.4 °F 70% 29.86 in 6.2 mi ESE 6.9 mph - N/A   Mostly Cloudy
5:00 PM 84 °F - 72 °F 61% 29.86 in 6 mi SE 6.7 mph - -   Haze
5:00 PM 84.2 °F 89.6 °F 71.6 °F 66% 29.86 in 6.2 mi SE 6.9 mph - N/A   Mostly Cloudy
6:00 PM 82.4 °F 88.2 °F 73.4 °F 74% 29.86 in 6.2 mi SE 11.5 mph - N/A   Mostly Cloudy
7:00 PM 82.4 °F 88.2 °F 73.4 °F 74% 29.89 in 6.2 mi ESE 6.9 mph - N/A   Scattered Clouds
8:00 PM 80 °F - 72 °F 71% 29.93 in 6 mi ESE 6.7 mph - -   Haze
8:00 PM 80.6 °F 84.6 °F 71.6 °F 74% 29.92 in 6.2 mi ESE 6.9 mph - N/A   Scattered Clouds
9:00 PM 78.8 °F - 71.6 °F 78% 29.92 in 6.2 mi ESE 6.9 mph - N/A   Scattered Clouds
10:00 PM 78.8 °F - 71.6 °F 78% 29.92 in 6.2 mi ESE 4.6 mph - N/A   Scattered Clouds
11:00 PM 79 °F - 73 °F 78% 29.93 in 6 mi SE 6.7 mph - -   Haze
11:00 PM 78.8 °F - 73.4 °F 83% 29.92 in 6.2 mi SE 6.9 mph - N/A   Partly Cloudy